Regional Weather Roundup
Issued by NWS

Home | Current Version | Previous Version | Graphics & Text | Print | Product List | Glossary On
Versions: 1 2 3 4 5 6 7 8 9 10 11 12 13 14 15 16 17 18 19 20 21 22 23 24 25 26 27 28 29 30 31 32 33 34 35 36 37 38 39 40 41 42 43 44 45 46 47 48 49 50
163
ASUS43 KMPX 200510
RWRMN
WEATHER ROUNDUP FOR MINNESOTA
NATIONAL WEATHER SERVICE TWIN CITIES/CHANHASSEN MN
1100 PM CST MON FEB 19 2018


NOTE: "FAIR" INDICATES FEW OR NO CLOUDS BELOW 12,000 FEET WITH NO
SIGNIFICANT WEATHER AND/OR OBSTRUCTIONS TO VISIBILITY. N/A MEANS
CURRENT SKY AND/OR WEATHER CONDITIONS ARE NOT AVAILABLE.

MNZ060>063-068>070-200600-
   Twin Cities Metro

CITY           SKY/WX    TMP DP  RH WIND       PRES   REMARKS
TWIN CITIES    FRZ DRZL  20  19  96 NE12      29.91R WCI   8
ST PAUL        CLOUDY    21  18  88 NE7       29.93S WCI  12
CRYSTAL        LGT SNOW  19  16  88 NE8       29.90F FOG     WCI   9
BLAINE         CLOUDY    19  18  93 NE8       29.91R WCI   9
LAKEVILLE      CLOUDY    19  19 100 NE13      29.87F WCI   7
EDEN PRAIRIE   CLOUDY    19  17  92 NE10      29.88S WCI   7
SOUTH ST PAUL  CLOUDY    22  19  90 NE7       29.90R WCI  13
LAKE ELMO      CLOUDY    21  19  93 NE8       29.91R WCI  12
$$
MNZ001>005-007-008-013>017-022>024-027-028-200600-
   Northwest Minnesota

CITY           SKY/WX    TMP DP  RH WIND       PRES   REMARKS
BEMIDJI        LGT SNOW   7   2  80 N10       30.02F WCI  -7
HALLOCK        FAIR       5  -8  56 N12       30.21S WCI -11
WARROAD        FAIR       7  -4  61 NE10      30.17F WCI  -8
CROOKSTON      FAIR       7   0  72 N13       30.18R HAZE    WCI  -9
FOSSTON        LGT SNOW   3  -2  78 N14       30.09R WCI -15
DETROIT LAKES  CLOUDY    10   5  79 N9        30.02R WCI  -2
MOORHEAD       LGT SNOW   7   1  78 N20       30.12R WCI -13
PARK RAPIDS    FLURRIES   9   3  77 N13G18    29.97F WCI  -7
MAHNOMEN       FLURRIES   7   2  82 N15       30.07R WCI -11
$$
MNZ006-009>011-018-025>026-200600-
   North Central Minnesota

CITY           SKY/WX    TMP DP  RH WIND       PRES   REMARKS
BAUDETTE       CLOUDY     6  -4  63 NE9       30.12F WCI  -8
FLAG ISLAND    CLOUDY     5  -8  56 NE6       30.18S WCI  -6
INTL FALLS     CLOUDY     7  -2  66 NE9       30.12F WCI  -7
WASKISH        CLOUDY     9   0  66 NE9       30.07F WCI  -5
BIG FORK       FLURRIES   9   3  78 N8        30.05F WCI  -4
LONGVILLE      FLURRIES   9   5  85 NE6       30.00F WCI  -1
GRAND RAPIDS   FLURRIES   9   4  80 NE7       30.03F WCI  -2
CRANE LAKE     LGT SNOW   5   1  85 N5        30.14S WCI  -4
ORR            FLURRIES   7   1  78 CALM      30.05F
COOK           FLURRIES   7   1  78 NE3       30.06F
WALKER         FLURRIES   8   3  81 NE7       30.00F WCI  -4
$$
MNZ012-019>021-037-200600-
   Northeast Minnesota

CITY           SKY/WX    TMP DP  RH WIND       PRES   REMARKS
DULUTH         LGT SNOW  14   9  80 NE20      29.97S WCI  -3
ELY            CLOUDY     5   1  85 NE10      30.05F WCI -10
HIBBING        CLOUDY     7   2  80 NE9       30.03F WCI  -7
EVELETH        FLURRIES N/A N/A N/A NE9       30.03F
DULUTH HARBOR  LGT SNOW  21  18  86 NE30G38   30.02  VSB 1   WCI   3
TWO HARBORS    LGT SNOW  16  10  79 NE10G16   30.00S WCI   3
GRAND MARAIS     N/A     11   1  64 NE7G17    30.12F WCI   0
G MARAIS ARPRT FLURRIES   3  -4  72 N14       30.00F WCI -15
$$
MNZ029>031-032-039>041-046>048-054>057-064-200600-
   West Central Minnesota

CITY           SKY/WX    TMP DP  RH WIND       PRES   REMARKS
FERGUS FALLS   CLOUDY    10   5  79 N8        30.06R WCI  -1
WHEATON        LGT SNOW   9   3  78 NW17G23   30.08R WCI -10
MORRIS         LGT SNOW  12   9  85 N12       29.99R WCI  -2
ALEXANDRIA     CLOUDY    12   7  80 NE12      29.93F HAZE    WCI  -2
ELBOW LAKE     FLURRIES  11   8  85 N10       30.02R WCI  -2
WADENA         FLURRIES   9   7  92 NE14      29.94F WCI  -8
GLENWOOD       FLURRIES  12   9  85 NE14G21   29.93R WCI  -3
APPLETON       CLOUDY    16   9  73 N10       29.99R WCI   3
BENSON         FLURRIES  14   9  79 NE8       29.98R WCI   3
ORTONVILLE     LGT SNOW  10   7  85 N17       29.99R WCI  -7
MADISON        LGT SNOW  16  10  79 N13       29.98R WCI   2
WILLMAR        CLOUDY    14  10  85 NE13      29.92S WCI   0
$$
MNZ033>034-036-042>043-049>051-058-059-200600-
   Central Minnesota

CITY           SKY/WX    TMP DP  RH WIND       PRES   REMARKS
ST CLOUD       CLOUDY    14  11  87 NE8       29.93F WCI   3
SAUK CENTRE    CLOUDY    12   7  79 NE12G20   29.92F WCI  -2
PAYNESVILLE    CLOUDY    14  11  89 NE9       29.90F WCI   2
PINE RIVER     FLURRIES   9   5  85 NE8       30.01F WCI  -4
BRAINERD       CLOUDY    12   4  70 NE14      29.96F WCI  -3
STAPLES        FLURRIES  10   7  85 NE8G16    29.94F WCI  -1
LONG PRAIRIE   CLOUDY    12   5  73 N12G22    29.90F WCI  -2
LITTLE FALLS   FLURRIES  14   3  62 NE5       29.93F WCI   6
LITCHFIELD     CLOUDY    16  14  93 NE9       29.90S WCI   4
BUFFALO        CLOUDY    18  14  84 N12G21    29.91F WCI   5
MAPLE LAKE     CLOUDY    19  15  84 NE16      29.91F WCI   4
HUTCHINSON     CLOUDY    19  16  88 NE16      29.88F WCI   4
$$
MNZ037-044-045-052-053-200600-
   East Central Minnesota

CITY           SKY/WX    TMP DP  RH WIND       PRES   REMARKS
PRINCETON      CLOUDY    19  12  73 NE10      29.92F WCI   8
MORA           FLURRIES  14  10  85 N3        29.97S
CAMBRIDGE      CLOUDY    19  12  73 N10G16    29.93F WCI   8
RUSH CITY      CLOUDY    18  14  85 NE13G21   29.94F WCI   4
MOOSE LAKE     LGT SNOW  14  10  85 NE6       29.96S WCI   5
HINCKLEY       CLOUDY    19  16  86 NE10G18   29.95F WCI   8
CLOQUET        LGT SNOW  14   9  79 NE13G20   29.96F WCI   0
MCGREGOR       CLOUDY    12   9  85 NE12      29.98F WCI  -2
$$
MNZ071>073-080-081-089-090-097-098-200600-
   Southwest Minnesota

CITY           SKY/WX    TMP DP  RH WIND       PRES   REMARKS
MONTEVIDEO     FLURRIES  14  10  85 NE12      29.96R WCI   0
GRANITE FALLS  CLOUDY    16  12  84 N9        29.96R WCI   5
CANBY          LGT SNOW  14  11  89 NW10      29.96R WCI   1
MARSHALL       FLURRIES  14  11  87 N12       29.95R WCI   0
REDWOOD FALLS  CLOUDY    15  14  95 NE9       29.89F WCI   3
OLIVIA         CLOUDY    18  14  86 NE14      29.89F WCI   4
PIPESTONE      FLURRIES  12   9  85 NE12      29.89R WCI  -2
WINDOM         CLOUDY    18   3  53 N9        29.85S WCI   6
WORTHINGTON    FLURRIES  15  13  91 N12       29.88R WCI   2
JACKSON        CLOUDY    18  16  93 N13       29.86R FOG     WCI   4
TRACY          CLOUDY    16  14  93 N9        29.92R WCI   4
SLAYTON        LGT SNOW  14  12  93 N12       29.90R WCI   0
$$
MNZ065>067-074>077-082>085-091>093-200600-
   South Central Minnesota

CITY           SKY/WX    TMP DP  RH WIND       PRES   REMARKS
MANKATO        LGT SNOW  20  18  92 NE12      29.87F FOG     WCI   8
NEW ULM        CLOUDY    18  16  93 NE14      29.87S WCI   4
ST JAMES       CLOUDY    18  18 100 N6        29.88F WCI   9
FAIRMONT       CLOUDY    19  18  95 N10       29.86R FOG     WCI   7
GLENCOE        CLOUDY    19  17  93 NE9       29.89F WCI   8
FARIBAULT      CLOUDY    19  19 100 N7        29.86S FOG     WCI  10
OWATONNA       CLOUDY    21  21 100 N7        29.82F FOG     WCI  13
WASECA         CLOUDY    23  21  93 NE9       29.85F FOG     WCI  13
ALBERT LEA     CLOUDY    23  21  93 NE7       29.81F WCI  15
$$
MNZ078>079-086>088-094>096-200600-
   Southeast Minnesota

CITY           SKY/WX    TMP DP  RH WIND       PRES   REMARKS
ROCHESTER      LGT SNOW  24  24 100 N9        29.81R FOG     WCI  14
RED WING       CLOUDY    23  18  80 NE7       29.86S HAZE    WCI  15
STANTON        CLOUDY    22  20  92 NE9       29.85F FOG     WCI  12
DODGE CENTER   CLOUDY    21  21 100 N8        29.81R FOG     WCI  12
WINONA         CLOUDY    30  30 100 NE5       29.82R WCI  25
AUSTIN         CLOUDY    25  23  93 NE5       29.80S FOG     WCI  19
PRESTON        FOG       27  26  96 N8        29.80R VSB 1   WCI  19
$$
ABBREVIATIONS USED IN REMARKS
   TC - TEMPERATURES IN CELSIUS
  WCI - WIND CHILL INDEX
   HX - HEAT INDEX
  VSB - VISIBILITY
$$




USA.gov is the U.S. government's official web portal to all federal, state and local government web resources and services.